Theta_e
327 325 324 325 325 325 325 326 326 325 324 326 331 335 334 332 332 332 333 332 332 333 333 334 336 340 340 341 343 343 343 342 341 343 341 339 339 339 339 339 339 338 341 344
325 323 323 323 323 323 323 324 324 323 326 333 333 332 333 332 332 332 332 332 332 333 333 334 335 337 336 338 338 338 339 341 342 339 340 338 338 338 337 336 334 337 338 339
324 323 322 323 323 323 323 324 327 332 333 332 333 333 333 332 333 331 330 330 331 330 332 332 333 335 337 337 338 337 339 341 341 338 337 337 337 337 337 335 333 337 337 338
324 325 325 327 328 330 329 330 332 332 332 330 331 331 331 334 333 331 330 329 327 326 328 329 332 334 334 335 337 334 333 337 339 339 338 335 335 338 335 335 337 337 335 335
327 325 325 324 328 330 332 331 332 331 330 329 328 329 331 334 332 329 327 325 325 323 322 325 329 330 332 333 334 335 332 335 336 332 333 330 335 339 341 338 338 339 339 337
326 327 326 332 333 331 331 333 331 330 330 329 329 331 333 334 332 330 327 328 326 326 324 322 324 327 328 329 330 330 332 334 337 337 338 337 336 338 337 337 338 339 338 337
325 326 325 331 332 331 333 334 330 331 330 330 331 331 332 333 332 327 325 328 326 325 323 321 321 325 326 326 329 329 328 329 332 336 337 338 337 337 336 337 338 338 338 339
328 329 329 331 331 333 332 330 330 332 331 332 331 333 333 332 332 328 324 323 323 324 324 324 322 318 320 324 325 328 330 329 329 332 335 337 338 338 337 337 338 336 337 337
327 329 330 327 327 326 327 329 331 332 331 332 331 332 332 332 333 327 325 320 323 322 325 321 323 321 317 315 322 327 327 325 328 329 329 330 332 336 335 337 339 336 337 336
325 325 325 326 324 324 326 329 330 331 331 330 331 332 332 332 331 330 324 323 326 326 323 323 319 323 321 317 320 326 326 323 325 325 325 327 333 333 331 331 331 332 333 334
326 325 325 323 323 324 323 324 326 331 331 330 330 330 331 330 331 330 324 324 325 327 327 326 323 320 321 315 317 326 327 327 327 326 327 326 327 331 332 326 329 330 330 331
323 321 321 321 320 321 322 321 323 330 330 330 331 330 330 329 328 326 325 324 324 327 327 325 321 324 321 315 318 325 326 326 324 326 327 326 325 328 328 326 326 326 325 328
318 318 318 319 320 321 322 327 326 330 330 330 329 328 328 327 327 326 325 324 325 327 326 325 322 322 321 315 316 322 326 327 326 326 326 327 328 327 329 328 328 327 325 324
318 318 320 320 321 320 323 324 328 329 330 330 328 327 327 327 327 327 325 324 324 325 325 327 326 327 318 316 317 321 324 324 326 325 324 324 325 325 326 327 327 327 325 322
320 326 324 324 325 322 324 329 329 329 330 330 329 328 327 326 326 326 327 326 324 324 325 327 327 325 316 317 321 323 322 321 322 322 321 321 321 322 322 323 323 323 327 327
325 323 325 328 329 329 330 330 330 329 329 330 329 328 326 328 325 326 325 327 323 325 325 326 324 318 316 318 321 323 322 319 319 320 319 319 320 319 319 320 322 322 321 321
324 322 326 326 327 328 330 330 330 329 329 329 328 328 328 328 326 326 326 326 322 324 326 327 324 321 321 320 321 321 321 321 319 320 319 318 318 318 318 319 319 320 320 321
324 325 325 325 326 328 329 329 329 329 329 328 328 328 326 327 325 324 324 325 323 326 326 327 327 324 321 321 320 321 321 321 321 320 320 320 319 318 318 316 317 318 319 320
325 324 324 325 326 327 327 328 327 327 328 328 328 325 323 325 325 322 321 324 324 324 323 323 322 323 324 320 318 321 322 321 321 321 321 320 320 320 320 321 318 316 317 318
325 325 325 325 326 326 327 327 327 327 328 327 326 323 321 322 323 325 326 322 322 320 321 323 326 326 324 319 319 320 321 322 321 321 320 319 320 320 320 320 320 320 319 318
324 324 323 323 324 325 327 327 326 327 325 322 320 319 320 321 323 325 321 322 321 321 322 322 322 322 322 321 321 321 320 320 320 320 320 320 320 319 319 319 319 319 320 320
323 324 322 322 322 322 322 325 324 321 320 320 321 323 322 321 322 323 323 323 322 321 320 319 319 318 317 318 319 319 318 318 317 317 317 317 317 316 316 317 317 318 318 319
324 325 324 322 321 321 322 323 321 320 320 320 322 324 324 324 324 322 320 318 317 316 317 314 314 313 313 317 317 317 316 315 314 314 313 313 313 313 313 313 314 315 315 316
324 325 325 324 322 322 321 322 321 321 320 320 320 320 321 320 320 319 316 315 313 311 309 308 308 309 309 310 310 310 310 310 309 309 309 309 310 311 311 313 313 313 312 312
323 323 323 323 321 321 321 319 318 319 319 319 318 318 319 319 319 316 312 310 308 308 306 305 304 304 304 304 304 304 304 305 304 303 304 304 305 305 306 307 308 308 308 308
322 321 321 321 321 320 318 318 317 317 317 317 317 316 312 311 310 308 307 306 305 304 303 302 300 300 300 300 300 300 300 300 300 300 299 299 300 300 300 300 301 301 302 303
319 319 321 320 320 320 319 317 317 317 317 315 311 309 308 308 306 306 304 304 303 302 302 301 300 299 298 298 299 299 299 299 299 299 299 299 299 300 300 300 300 299 299 299
Wind_Speed
12 14 16 16 18 16 19 20 19 19 20 17 14 10 10 9 11 15 19 24 27 27 25 23 21 15 16 17 15 15 17 19 18 14 15 11 11 10 12 14 19 28 28 27
15 17 17 20 20 21 22 21 20 18 16 7 9 13 10 10 12 14 20 23 27 24 20 19 18 14 15 14 13 14 16 18 14 13 11 11 11 9 9 12 13 15 18 21
14 7 9 13 19 18 14 11 12 11 12 13 12 11 8 10 10 12 14 19 21 23 19 18 12 8 9 8 6 5 8 7 13 11 9 10 10 12 11 12 11 10 15 18
9 6 13 4 2 2 6 9 5 9 5 6 8 10 8 6 8 11 12 17 16 20 24 13 4 2 5 6 3 3 4 3 8 9 7 9 9 10 14 14 14 16 18 16
7 10 11 12 9 5 5 10 3 1 5 9 11 14 11 5 4 6 9 9 12 18 19 17 13 10 6 6 6 5 1 2 2 6 7 8 11 9 6 9 11 10 10 14
8 9 11 6 6 1 2 8 5 5 8 11 13 10 5 2 4 5 3 6 10 12 13 13 13 11 11 11 10 11 12 6 6 5 6 8 6 2 3 3 3 6 7 8
11 10 8 6 4 3 7 4 6 6 7 11 10 13 11 6 5 3 2 4 8 10 13 13 11 9 11 12 11 11 11 10 8 5 5 2 3 2 6 6 9 8 5 1
8 10 12 8 4 6 9 12 9 8 9 12 13 12 10 8 6 4 1 2 4 8 9 11 14 13 12 9 7 8 6 6 8 8 6 4 6 5 4 5 7 6 4 2
5 2 5 2 4 10 11 14 11 9 9 11 12 11 7 7 9 5 2 3 3 8 7 7 11 14 12 12 7 7 5 5 6 8 9 10 9 9 8 9 10 8 8 7
10 12 7 4 12 5 7 9 10 9 9 10 11 10 9 7 11 8 5 5 3 7 5 7 12 11 13 15 7 7 7 6 5 7 8 6 5 6 8 8 9 6 6 7
12 17 18 22 7 6 11 12 11 9 8 9 8 9 7 4 9 8 8 4 3 6 5 5 4 5 10 14 7 5 7 6 6 6 5 5 5 5 7 6 8 6 8 7
11 15 13 19 19 14 17 18 14 10 8 6 4 4 3 1 2 8 7 3 2 3 4 4 5 6 10 11 7 5 6 6 7 8 7 7 6 4 3 5 6 6 7 7
20 14 17 21 18 18 17 12 10 8 6 3 1 1 0 2 3 2 3 3 1 0 3 3 6 7 11 11 7 6 7 8 8 9 8 8 7 5 1 1 2 2 1 1
15 19 21 18 19 14 13 14 8 8 7 5 4 3 3 2 3 4 4 1 3 1 2 3 6 6 11 8 6 7 8 8 7 6 6 5 5 4 5 3 3 4 7 6
11 8 13 16 16 17 15 10 10 10 8 7 7 5 6 5 4 4 4 4 2 3 5 4 4 6 9 9 7 6 6 5 5 5 5 6 6 6 5 4 4 4 5 7
8 11 10 9 8 8 8 10 12 10 8 8 8 8 7 6 6 4 4 3 1 4 5 3 5 6 8 8 7 6 6 7 8 6 6 6 6 7 7 7 6 5 4 3
9 9 6 7 6 6 6 10 11 10 9 9 9 8 6 7 6 5 3 3 0 2 2 3 2 4 5 6 4 5 5 6 9 9 9 10 10 10 10 9 9 8 8 7
6 5 5 7 8 7 6 9 10 10 10 10 8 6 7 8 7 5 0 2 1 0 2 1 2 2 1 3 5 4 5 6 7 8 9 10 11 10 11 12 13 13 12 12
6 7 6 7 7 6 6 7 9 7 7 9 7 6 9 6 7 8 4 3 1 1 3 5 7 6 3 4 3 4 6 8 10 10 11 12 12 11 12 12 12 13 15 15
2 4 7 6 5 5 6 6 7 6 6 5 5 8 9 8 7 9 8 6 4 5 7 7 3 2 2 4 6 11 9 11 11 11 11 12 11 12 13 13 13 13 13 14
3 4 2 3 0 3 5 7 9 9 7 10 12 12 13 12 8 7 5 4 5 6 10 9 6 5 8 6 6 8 9 10 11 11 13 13 14 14 14 14 15 15 15 14
3 4 9 7 4 6 9 10 13 12 13 14 6 9 11 10 8 10 11 10 7 8 5 6 5 5 6 6 7 8 9 11 12 13 13 14 14 15 16 16 16 16 16 16
4 5 7 10 9 11 13 13 10 11 9 6 6 9 11 10 7 7 9 9 7 5 7 7 8 9 10 8 8 9 9 10 11 11 12 13 14 14 15 16 17 16 17 14
10 10 11 11 9 9 11 12 12 10 10 9 11 16 10 10 11 10 9 6 6 7 8 9 9 9 7 7 8 8 9 10 11 13 14 15 15 15 16 16 15 15 16 16
14 13 13 12 13 16 17 15 14 16 16 14 15 11 10 10 9 7 7 6 6 6 7 9 10 11 10 10 11 11 12 12 14 15 14 15 16 16 16 17 17 19 20 22
13 15 15 14 15 16 16 16 18 16 15 13 11 10 10 8 7 6 5 5 6 7 6 8 11 10 10 11 11 12 13 13 14 14 16 15 16 17 17 18 19 19 20 22
14 14 11 11 12 10 9 9 10 12 10 10 10 9 8 5 6 5 5 4 5 6 7 8 9 12 13 13 13 13 14 14 16 18 18 18 18 19 20 21 22 22 22 22
Wind_Direction
268 282 280 272 268 270 270 268 272 290 292 302 326 346 329 329 328 328 329 325 318 310 303 296 285 277 283 288 279 267 262 265 259 229 222 225 218 229 238 240 248 251 248 243
275 273 266 269 265 265 266 271 279 277 277 13 338 303 332 322 326 333 336 337 333 320 309 299 293 286 286 288 288 287 281 261 223 190 205 209 217 256 253 254 262 256 253 246
278 298 294 260 251 254 263 267 277 288 336 335 323 327 316 308 322 325 337 348 353 355 328 308 304 295 287 292 308 330 331 206 188 197 211 248 256 276 253 247 257 249 240 238
265 277 254 66 95 328 280 288 276 281 333 329 316 310 294 284 311 324 328 334 341 356 10 354 24 28 7 347 7 321 9 67 182 190 217 238 285 285 240 245 251 256 250 251
253 250 286 268 183 230 255 297 28 309 327 324 326 307 243 239 316 342 343 2 10 20 8 8 27 25 357 351 346 66 21 355 95 186 186 211 280 257 231 248 248 255 242 240
250 271 277 66 121 133 306 253 116 342 331 333 326 305 38 237 281 316 355 349 20 31 9 23 21 24 31 38 51 31 49 56 96 126 167 220 213 219 176 172 187 210 235 243
239 252 263 67 108 147 244 40 344 323 318 325 320 313 301 270 247 272 310 340 11 23 14 30 32 31 32 35 48 45 40 41 56 72 96 172 174 139 116 108 85 89 100 204
235 257 249 113 161 259 354 321 297 296 305 315 315 304 282 260 243 250 279 32 15 31 28 22 34 30 21 23 24 18 9 42 63 62 70 57 69 77 89 97 94 59 45 344
247 9 95 320 322 315 299 285 285 284 296 308 308 304 279 264 214 205 155 49 41 27 4 14 27 28 19 17 11 11 19 43 61 58 55 56 60 63 56 62 65 63 82 78
258 241 243 274 311 291 328 312 289 284 294 306 309 315 287 265 200 205 207 148 312 327 3 31 27 7 3 360 18 27 34 48 64 62 54 78 80 72 71 62 72 70 73 75
249 260 281 278 285 297 318 313 307 273 282 295 306 311 304 250 216 227 220 200 262 301 347 17 30 356 359 5 19 31 41 41 42 36 30 22 43 92 77 81 98 85 77 75
255 268 280 278 290 278 308 304 293 267 273 279 295 318 310 343 213 224 197 170 156 303 352 9 35 15 0 10 43 44 41 47 58 56 45 35 40 36 96 97 82 79 76 86
260 279 285 284 276 273 292 308 277 241 249 255 175 314 249 209 247 237 191 185 216 1 50 38 20 356 357 7 34 74 57 71 61 60 53 51 53 66 106 317 337 332 321 315
261 285 279 268 267 263 269 297 261 230 227 208 176 162 197 254 227 181 197 195 227 291 325 356 359 353 358 16 44 76 71 66 57 45 34 35 38 39 43 39 4 325 296 291
254 255 277 279 272 263 268 260 217 214 214 199 195 199 198 194 172 173 189 228 202 287 325 351 17 5 14 33 57 66 60 44 37 32 25 39 41 36 27 11 350 335 310 320
272 281 291 278 270 256 238 214 212 213 213 205 202 204 206 199 192 208 189 219 279 350 350 23 46 33 31 41 52 37 24 24 33 23 14 6 359 356 347 347 334 322 325 315
283 282 296 283 308 261 216 213 216 221 218 213 211 209 216 205 203 202 218 230 5 349 30 46 43 29 24 23 17 12 8 352 4 1 348 344 341 332 324 317 313 312 306 285
262 263 287 290 285 270 241 219 221 223 220 218 216 215 207 196 203 213 127 201 232 154 38 330 256 244 2 15 23 7 359 352 347 344 338 334 330 337 328 309 295 290 291 289
262 255 275 295 272 246 214 204 208 216 219 210 226 200 191 178 204 142 119 161 154 141 344 324 287 252 255 274 321 316 320 327 325 322 319 318 322 315 311 313 310 295 282 280
245 285 272 272 234 203 196 190 187 175 165 176 158 162 158 157 183 152 133 108 77 38 16 14 53 162 216 266 305 315 312 314 317 315 314 314 311 308 310 309 309 305 295 289
11 21 89 141 208 140 158 161 149 141 127 141 123 120 149 168 180 140 120 71 66 56 42 27 41 28 340 342 338 321 316 317 321 316 312 310 309 308 305 305 307 309 307 305
32 104 95 80 94 102 122 123 123 123 130 136 172 173 166 155 139 118 97 91 79 81 61 38 12 352 343 4 321 320 321 321 323 317 312 309 308 308 308 307 307 307 302 302
61 90 132 141 113 101 113 119 134 129 152 191 141 119 116 111 107 105 83 75 69 64 45 3 352 346 354 354 331 324 321 318 315 313 312 310 308 309 309 310 302 305 302 304
82 84 115 127 120 111 107 125 137 134 116 109 109 102 88 88 81 75 76 67 39 7 356 352 351 348 13 349 341 335 328 322 320 314 314 311 308 302 299 306 302 299 295 295
89 92 96 99 108 114 109 112 111 121 121 117 114 106 103 96 95 87 70 42 16 41 17 348 341 354 2 354 344 335 328 321 310 319 313 311 306 305 303 298 294 295 297 287
88 88 89 93 98 106 108 110 106 100 97 95 103 98 80 68 66 58 36 41 32 28 26 14 10 13 0 346 344 332 328 322 319 315 314 312 305 303 302 299 298 297 294 296
83 86 92 102 101 102 101 90 105 107 104 106 98 89 84 69 52 44 51 36 28 24 17 9 357 351 347 341 333 331 325 320 317 313 319 313 309 306 303 303 302 301 299 295